Location: Unspecified
(0.0000°N, 0.0000°E)
Time: 09:28:09
(UTC+00:00)

A-11 Canister half - Pass Details

Date: 07 August 2021
Orbit: 1515 x 1685 km, 47.2° (Epoch: 27 September)

Event Time Altitude Azimuth Distance (km) Brightness Sun altitude
Rises 14:21:50 0° 262° (W) 4,674 12.0 52.7°
Reaches altitude 10° 14:26:50 10° 285° (WNW) 3,713 11.9 51.6°
Maximum altitude 14:31:27 15° 315° (NW) 3,387 11.7 50.6°
Drops below altitude 10° 14:36:09 10° 346° (NNW) 3,768 11.6 49.5°
Sets 14:41:23 0° 9° (N) 4,789 11.7 48.3°
